TimeCDT,TemperatureF,Dew PointF,Humidity,Sea Level PressureIn,VisibilityMPH,Wind Direction,Wind SpeedMPH,Gust SpeedMPH,PrecipitationIn,Events,Conditions,WindDirDegrees,DateUTC
12:15 AM,61.0,59.9,96,29.88,10.0,South,8.1,-,N/A,Rain,Rain,170,2013-05-16 05:15:00
12:35 AM,61.2,60.1,96,29.86,10.0,South,9.2,-,N/A,Rain-Thunderstorm,Light Thunderstorms and Rain,170,2013-05-16 05:35:00
12:55 AM,61.7,60.3,95,29.85,10.0,South,6.9,-,N/A,Rain,Light Rain,170,2013-05-16 05:55:00
1:15 AM,61.7,60.3,95,29.83,10.0,SSE,4.6,-,N/A,Rain,Light Rain,150,2013-05-16 06:15:00
1:35 AM,61.9,60.8,96,29.84,10.0,SSE,4.6,-,N/A,Rain,Light Rain,160,2013-05-16 06:35:00
1:55 AM,62.2,60.8,95,29.81,10.0,SE,9.2,-,N/A,Rain,Rain,130,2013-05-16 06:55:00
2:15 AM,62.6,61.0,94,29.81,10.0,Calm,Calm,-,N/A,Rain,Light Rain,0,2013-05-16 07:15:00
2:35 AM,62.8,61.2,94,29.80,10.0,ESE,3.5,-,N/A,Rain,Light Rain,120,2013-05-16 07:35:00
2:55 AM,62.8,61.7,96,29.77,10.0,ESE,6.9,-,N/A,,Overcast,110,2013-05-16 07:55:00
3:15 AM,62.6,61.5,96,29.77,10.0,East,3.5,-,N/A,,Scattered Clouds,100,2013-05-16 08:15:00
3:35 AM,63.0,61.7,96,29.77,10.0,ESE,4.6,-,N/A,,Mostly Cloudy,110,2013-05-16 08:35:00
3:55 AM,63.3,62.2,96,29.77,10.0,ESE,5.8,-,N/A,,Overcast,110,2013-05-16 08:55:00
4:15 AM,63.9,62.8,96,29.77,10.0,ESE,5.8,-,N/A,,Overcast,110,2013-05-16 09:15:00
4:35 AM,64.4,63.1,96,29.78,10.0,SE,3.5,-,N/A,,Overcast,140,2013-05-16 09:35:00
4:55 AM,64.9,63.1,94,29.80,10.0,Calm,Calm,-,N/A,,Overcast,0,2013-05-16 09:55:00
5:15 AM,64.9,63.5,95,29.81,10.0,Calm,Calm,-,N/A,,Overcast,0,2013-05-16 10:15:00
5:35 AM,64.8,63.1,94,29.83,10.0,SSW,3.5,-,N/A,,Overcast,210,2013-05-16 10:35:00
5:55 AM,64.8,63.1,94,29.83,10.0,Calm,Calm,-,N/A,,Overcast,0,2013-05-16 10:55:00
6:15 AM,64.4,63.0,95,29.82,10.0,Calm,Calm,-,N/A,,Mostly Cloudy,0,2013-05-16 11:15:00
6:35 AM,64.0,62.8,96,29.82,7.0,Calm,Calm,-,N/A,,Scattered Clouds,0,2013-05-16 11:35:00
6:55 AM,64.0,63.0,96,29.82,7.0,Calm,Calm,-,N/A,,Mostly Cloudy,0,2013-05-16 11:55:00
7:15 AM,63.9,62.8,96,29.83,5.0,Calm,Calm,-,N/A,,Overcast,0,2013-05-16 12:15:00
7:35 AM,64.0,63.0,96,29.83,7.0,Calm,Calm,-,N/A,,Overcast,0,2013-05-16 12:35:00
7:55 AM,64.6,63.5,96,29.84,10.0,SSE,3.5,-,N/A,,Overcast,160,2013-05-16 12:55:00
8:15 AM,64.6,62.6,93,29.85,10.0,SSE,6.9,-,N/A,,Overcast,150,2013-05-16 13:15:00
8:35 AM,64.4,62.6,94,29.85,10.0,SSE,6.9,-,N/A,Rain,Light Rain,150,2013-05-16 13:35:00
8:55 AM,64.4,62.6,94,29.88,10.0,SW,4.6,-,N/A,Rain,Light Rain,220,2013-05-16 13:55:00
9:15 AM,63.7,62.2,95,29.89,7.0,West,3.5,-,N/A,Rain-Thunderstorm,Rain,260,2013-05-16 14:15:00
9:35 AM,63.5,61.9,94,29.88,2.5,Calm,Calm,-,N/A,Rain-Thunderstorm,Rain,0,2013-05-16 14:35:00
9:55 AM,63.1,61.9,96,29.88,2.5,SE,3.5,-,N/A,Rain-Thunderstorm,Rain,140,2013-05-16 14:55:00
10:15 AM,63.0,61.9,96,29.86,10.0,ESE,3.5,-,N/A,Rain-Thunderstorm,Light Thunderstorms and Rain,120,2013-05-16 15:15:00
10:35 AM,63.0,61.9,96,29.86,7.0,SE,4.6,-,N/A,Rain-Thunderstorm,Light Thunderstorms and Rain,130,2013-05-16 15:35:00
10:55 AM,63.1,61.9,96,29.87,10.0,East,4.6,-,N/A,Rain-Thunderstorm,Light Thunderstorms and Rain,90,2013-05-16 15:55:00
11:15 AM,63.0,61.9,96,29.87,10.0,SE,4.6,-,N/A,Rain-Thunderstorm,Light Thunderstorms and Rain,140,2013-05-16 16:15:00
11:35 AM,63.0,61.7,96,29.86,7.0,SE,8.1,-,N/A,Rain-Thunderstorm,Thunderstorms and Rain,130,2013-05-16 16:35:00
11:55 AM,62.6,61.3,96,29.88,7.0,Calm,Calm,-,N/A,Rain-Thunderstorm,Thunderstorms and Rain,0,2013-05-16 16:55:00
12:15 PM,62.6,61.2,95,29.87,3.0,SE,5.8,-,N/A,Rain,Heavy Rain,130,2013-05-16 17:15:00
12:35 PM,62.6,61.2,95,29.87,10.0,Calm,Calm,-,N/A,Rain,Light Rain,0,2013-05-16 17:35:00
12:55 PM,62.6,61.2,95,29.87,1.5,ENE,3.5,-,N/A,Rain,Heavy Rain,70,2013-05-16 17:55:00
1:15 PM,62.6,61.7,97,29.86,3.0,SE,5.8,-,N/A,Rain,Heavy Rain,130,2013-05-16 18:15:00
1:35 PM,62.6,61.5,96,29.87,2.5,SE,5.8,-,N/A,Rain,Heavy Rain,140,2013-05-16 18:35:00
2:15 PM,63.1,61.9,96,29.85,5.0,SE,5.8,-,N/A,Rain,Light Rain,140,2013-05-16 19:15:00
2:35 PM,63.5,62.1,95,29.85,10.0,SE,6.9,-,N/A,Rain,Rain,130,2013-05-16 19:35:00
2:55 PM,63.5,61.9,94,29.85,10.0,SE,5.8,-,N/A,,Drizzle,130,2013-05-16 19:55:00
3:15 PM,64.0,62.4,94,29.84,10.0,SE,3.5,-,N/A,Rain,Light Rain,130,2013-05-16 20:15:00
3:35 PM,64.4,62.6,94,29.83,10.0,SE,4.6,-,N/A,,Overcast,140,2013-05-16 20:35:00
3:55 PM,64.0,62.6,95,29.83,10.0,SE,5.8,-,N/A,,Drizzle,140,2013-05-16 20:55:00
4:15 PM,64.2,62.6,94,29.83,10.0,ESE,4.6,-,N/A,,Overcast,110,2013-05-16 21:15:00
4:35 PM,64.4,62.8,94,29.83,10.0,ESE,4.6,-,N/A,Rain,Light Rain,110,2013-05-16 21:35:00
4:55 PM,64.2,62.8,95,29.82,10.0,Calm,Calm,-,N/A,Rain,Light Rain,0,2013-05-16 21:55:00
5:15 PM,64.4,63.1,96,29.82,10.0,East,4.6,-,N/A,,Overcast,100,2013-05-16 22:15:00
5:35 PM,64.4,63.1,96,29.82,7.0,ESE,3.5,-,N/A,Rain,Rain,110,2013-05-16 22:35:00
5:55 PM,64.4,63.1,96,29.82,10.0,East,4.6,-,N/A,,Overcast,80,2013-05-16 22:55:00
6:15 PM,64.4,63.0,95,29.81,10.0,ESE,5.8,-,N/A,,Overcast,110,2013-05-16 23:15:00
6:35 PM,64.4,63.0,95,29.81,10.0,East,5.8,-,N/A,,Overcast,100,2013-05-16 23:35:00
6:55 PM,64.0,62.6,95,29.81,10.0,Calm,Calm,-,N/A,,Overcast,0,2013-05-16 23:55:00
7:15 PM,64.0,62.6,95,29.81,10.0,East,5.8,-,N/A,,Overcast,100,2013-05-17 00:15:00
7:35 PM,64.0,62.6,95,29.81,10.0,ENE,4.6,-,N/A,,Overcast,60,2013-05-17 00:35:00
7:55 PM,64.0,62.6,95,29.82,10.0,Calm,Calm,-,N/A,,Overcast,0,2013-05-17 00:55:00
8:15 PM,64.0,62.6,95,29.82,10.0,East,4.6,-,N/A,,Overcast,90,2013-05-17 01:15:00
8:35 PM,64.0,62.6,95,29.82,10.0,ENE,3.5,-,N/A,,Overcast,70,2013-05-17 01:35:00
8:55 PM,64.0,62.4,94,29.83,10.0,East,4.6,-,N/A,,Overcast,90,2013-05-17 01:55:00
9:15 PM,64.0,62.2,94,29.83,10.0,East,4.6,-,N/A,,Overcast,80,2013-05-17 02:15:00
9:35 PM,63.9,62.2,94,29.83,10.0,East,4.6,-,N/A,,Overcast,80,2013-05-17 02:35:00
9:55 PM,63.9,62.2,94,29.84,10.0,ENE,4.6,-,N/A,,Overcast,60,2013-05-17 02:55:00
10:15 PM,63.9,62.2,94,29.85,10.0,ENE,4.6,-,N/A,,Overcast,60,2013-05-17 03:15:00
10:35 PM,63.9,62.2,94,29.85,10.0,Calm,Calm,-,N/A,Rain,Light Rain,0,2013-05-17 03:35:00
10:55 PM,63.9,62.2,94,29.85,10.0,Calm,Calm,-,N/A,,Overcast,0,2013-05-17 03:55:00
11:15 PM,64.0,62.6,95,29.85,10.0,East,3.5,-,N/A,,Overcast,90,2013-05-17 04:15:00
11:35 PM,64.0,62.6,95,29.85,10.0,Calm,Calm,-,N/A,,Overcast,0,2013-05-17 04:35:00
11:55 PM,64.0,62.6,95,29.85,10.0,East,3.5,-,N/A,,Overcast,100,2013-05-17 04:55:00